TimeCST,TemperatureF,Dew PointF,Humidity,Sea Level PressureIn,VisibilityMPH,Wind Direction,Wind SpeedMPH,Gust SpeedMPH,PrecipitationIn,Events,Conditions,WindDirDegrees,DateUTC
12:13 AM,44.2,37.8,78,29.68,7.0,SSE,13.8,17.3,N/A,,Clear,160,2012-12-03 06:13:00
12:34 AM,45.0,37.9,76,29.67,7.0,SSE,12.7,23.0,N/A,,Clear,150,2012-12-03 06:34:00
12:54 AM,45.0,38.1,77,29.66,7.0,SSE,16.1,20.7,N/A,,Clear,150,2012-12-03 06:54:00
1:13 AM,44.6,38.1,78,29.65,7.0,SSE,15.0,20.7,N/A,,Clear,160,2012-12-03 07:13:00
1:34 AM,44.8,37.9,77,29.65,10.0,SSE,13.8,18.4,N/A,,Clear,160,2012-12-03 07:34:00
1:54 AM,44.1,37.8,78,29.65,7.0,SSE,15.0,20.7,N/A,,Clear,160,2012-12-03 07:54:00
2:13 AM,43.5,37.8,80,29.64,7.0,SSE,13.8,20.7,N/A,,Clear,160,2012-12-03 08:13:00
2:33 AM,42.8,37.8,82,29.62,7.0,SSE,17.3,23.0,N/A,,Clear,160,2012-12-03 08:33:00
2:54 AM,42.1,37.9,85,29.62,7.0,SSE,13.8,26.5,N/A,,Clear,150,2012-12-03 08:54:00
3:13 AM,41.9,38.7,88,29.62,7.0,SSE,15.0,19.6,N/A,,Clear,160,2012-12-03 09:13:00
3:33 AM,42.1,39.4,90,29.61,5.0,South,13.8,17.3,N/A,,Scattered Clouds,170,2012-12-03 09:33:00
3:54 AM,42.8,40.6,92,29.60,4.0,SSE,13.8,19.6,N/A,,Overcast,160,2012-12-03 09:54:00
4:34 AM,43.7,43.0,97,29.59,1.0,SSE,13.8,20.7,N/A,,Overcast,160,2012-12-03 10:34:00
4:53 AM,44.2,43.5,97,29.58,0.8,SSE,13.8,21.9,N/A,,Overcast,160,2012-12-03 10:53:00
5:13 AM,44.6,44.1,98,29.56,1.0,SSE,16.1,20.7,N/A,,Overcast,150,2012-12-03 11:13:00
5:34 AM,44.8,44.2,98,29.55,1.0,SSE,16.1,24.2,N/A,,Overcast,150,2012-12-03 11:34:00
5:54 AM,45.3,44.8,98,29.54,1.2,SSE,17.3,25.3,N/A,,Overcast,150,2012-12-03 11:54:00
6:13 AM,45.5,45.1,99,29.54,1.5,SSE,13.8,24.2,N/A,,Overcast,160,2012-12-03 12:13:00
6:33 AM,45.7,45.5,99,29.54,2.0,SSE,17.3,20.7,N/A,,Overcast,160,2012-12-03 12:33:00
6:54 AM,46.4,45.9,98,29.54,2.5,South,11.5,21.9,N/A,,Overcast,170,2012-12-03 12:54:00
7:13 AM,46.4,45.9,98,29.53,3.0,SSE,15.0,20.7,N/A,,Overcast,160,2012-12-03 13:13:00
7:33 AM,46.6,45.9,97,29.52,4.0,South,17.3,24.2,N/A,,Overcast,170,2012-12-03 13:33:00
7:54 AM,47.1,45.7,95,29.55,4.0,South,11.5,21.9,N/A,,Overcast,190,2012-12-03 13:54:00
8:14 AM,47.5,45.9,94,29.53,4.0,South,17.3,21.9,N/A,,Overcast,180,2012-12-03 14:14:00
8:33 AM,47.5,45.7,93,29.54,4.0,South,13.8,18.4,N/A,,Overcast,180,2012-12-03 14:33:00
9:13 AM,48.2,45.7,91,29.53,4.0,South,16.1,21.9,N/A,,Overcast,180,2012-12-03 15:13:00
9:34 AM,48.2,45.9,92,29.54,4.0,SSW,16.1,23.0,N/A,,Overcast,200,2012-12-03 15:34:00
9:54 AM,48.6,45.5,89,29.53,4.0,SSW,16.1,24.2,N/A,,Overcast,210,2012-12-03 15:54:00
10:14 AM,48.4,45.1,89,29.54,5.0,SSW,12.7,19.6,N/A,,Scattered Clouds,210,2012-12-03 16:14:00
10:34 AM,48.7,44.4,85,29.55,5.0,SW,12.7,20.7,N/A,,Haze,230,2012-12-03 16:34:00
10:53 AM,48.6,43.5,83,29.55,7.0,WSW,16.1,21.9,N/A,,Scattered Clouds,240,2012-12-03 16:53:00
11:14 AM,48.7,42.4,79,29.56,7.0,WSW,18.4,26.5,N/A,,Clear,250,2012-12-03 17:14:00
11:34 AM,49.3,40.3,71,29.57,10.0,West,18.4,27.6,N/A,,Clear,280,2012-12-03 17:34:00
11:53 AM,50.2,39.2,66,29.58,10.0,WNW,23.0,31.1,N/A,,Clear,290,2012-12-03 17:53:00
12:14 PM,50.4,39.7,67,29.59,10.0,WNW,24.2,31.1,N/A,,Scattered Clouds,290,2012-12-03 18:14:00
12:33 PM,50.2,39.7,67,29.59,10.0,WNW,19.6,28.8,N/A,,Mostly Cloudy,290,2012-12-03 18:33:00
1:14 PM,50.2,39.4,66,29.60,10.0,WNW,19.6,24.2,N/A,,Mostly Cloudy,300,2012-12-03 19:14:00
1:33 PM,49.1,40.3,72,29.62,10.0,WNW,20.7,27.6,N/A,,Mostly Cloudy,290,2012-12-03 19:33:00
1:53 PM,48.4,40.8,75,29.64,10.0,WNW,17.3,27.6,N/A,,Overcast,290,2012-12-03 19:53:00
2:14 PM,48.2,40.5,75,29.65,10.0,West,23.0,29.9,N/A,,Overcast,280,2012-12-03 20:14:00
2:33 PM,48.0,39.7,73,29.67,10.0,West,19.6,26.5,N/A,,Mostly Cloudy,280,2012-12-03 20:33:00
2:54 PM,49.1,37.6,64,29.67,10.0,WNW,19.6,31.1,N/A,,Scattered Clouds,290,2012-12-03 20:54:00
3:14 PM,48.4,35.8,62,29.69,10.0,West,19.6,26.5,N/A,,Clear,270,2012-12-03 21:14:00
3:34 PM,47.8,33.6,58,29.72,10.0,West,20.7,31.1,N/A,,Clear,280,2012-12-03 21:34:00
3:53 PM,47.5,32.7,57,29.73,10.0,West,20.7,29.9,N/A,,Clear,280,2012-12-03 21:53:00
4:14 PM,46.6,33.1,59,29.74,10.0,West,15.0,23.0,N/A,,Clear,280,2012-12-03 22:14:00
4:33 PM,45.5,33.1,62,29.75,10.0,West,10.4,-,N/A,,Clear,270,2012-12-03 22:33:00
4:54 PM,42.4,32.2,67,29.76,10.0,West,9.2,-,N/A,,Clear,260,2012-12-03 22:54:00
5:13 PM,40.3,32.0,72,29.77,10.0,West,6.9,-,N/A,,Clear,260,2012-12-03 23:13:00
5:33 PM,37.9,31.1,76,29.78,10.0,WSW,9.2,-,N/A,,Clear,250,2012-12-03 23:33:00
5:53 PM,40.1,31.8,72,29.79,10.0,WSW,9.2,-,N/A,,Clear,250,2012-12-03 23:53:00
6:14 PM,39.9,31.1,71,29.81,10.0,WSW,11.5,-,N/A,,Clear,250,2012-12-04 00:14:00
6:34 PM,39.0,30.7,72,29.82,10.0,WSW,8.1,-,N/A,,Clear,240,2012-12-04 00:34:00
6:54 PM,39.2,30.6,71,29.83,10.0,SW,9.2,-,N/A,,Clear,230,2012-12-04 00:54:00
7:13 PM,41.7,30.2,64,29.83,10.0,SW,11.5,-,N/A,,Clear,230,2012-12-04 01:13:00
7:34 PM,41.7,29.1,61,29.84,10.0,SW,11.5,-,N/A,,Clear,230,2012-12-04 01:34:00
7:53 PM,40.5,28.4,62,29.84,10.0,WSW,11.5,-,N/A,,Clear,240,2012-12-04 01:53:00
8:13 PM,39.2,27.9,64,29.85,10.0,WSW,10.4,-,N/A,,Clear,240,2012-12-04 02:13:00
8:34 PM,38.5,27.3,64,29.85,10.0,WSW,11.5,-,N/A,,Clear,240,2012-12-04 02:34:00
8:53 PM,39.2,26.8,61,29.85,10.0,WSW,11.5,-,N/A,,Clear,240,2012-12-04 02:53:00
9:14 PM,39.2,26.6,61,29.86,10.0,WSW,11.5,-,N/A,,Clear,240,2012-12-04 03:14:00
9:33 PM,38.3,26.4,62,29.87,10.0,WSW,10.4,-,N/A,,Clear,250,2012-12-04 03:33:00
9:53 PM,37.9,26.1,62,29.89,10.0,WSW,9.2,-,N/A,,Clear,240,2012-12-04 03:53:00
10:13 PM,35.8,25.9,67,29.89,10.0,WSW,9.2,-,N/A,,Clear,250,2012-12-04 04:13:00
10:33 PM,37.0,25.7,64,29.90,10.0,WSW,11.5,-,N/A,,Clear,240,2012-12-04 04:33:00
10:54 PM,39.2,26.1,59,29.91,10.0,WSW,12.7,19.6,N/A,,Clear,250,2012-12-04 04:54:00
11:13 PM,36.7,25.7,64,29.91,10.0,West,11.5,-,N/A,,Clear,260,2012-12-04 05:13:00
11:33 PM,38.5,26.1,61,29.93,10.0,West,16.1,24.2,N/A,,Clear,270,2012-12-04 05:33:00
11:54 PM,38.3,25.3,60,29.94,10.0,West,17.3,23.0,N/A,,Clear,280,2012-12-04 05:54:00